Powrót do katalogu

OPTUS B3

AktywnyŁącznośćGEO
NORAD 23227·PAYLOAD·🇦🇺 Australia

Wystrzelony Aug 27, 1994 z Xichang Satellite Launch Center

Loading…

TLE

ŚwieżeSource: Space-Track

Epoka: Sep 14, 2026, 12:32 UTC

1 23227U 94055A   26257.52289031 -.00000165  00000-0  00000-0 0  9994
2 23227  12.4986  29.6387 0003399  51.7477 287.4503  0.98698581116795

Śledź OPTUS B3 w czasie rzeczywistym z AllMySat

Download on the App Store